Regional Weather Roundup
Issued by NWS

Home | Current Version | Previous Version | Text Only | Print | Product List | Glossary Off
Versions: 1 2 3 4 5 6 7 8 9 10 11 12 13 14 15 16 17 18 19 20 21 22 23 24 25 26 27 28 29 30 31 32 33 34 35 36 37 38 39 40 41 42 43 44 45 46 47 48 49 50

000
ASUS43 KBIS 222010
RWRND

NORTH DAKOTA REGIONAL WEATHER ROUNDUP
NATIONAL WEATHER SERVICE BISMARCK ND
200 PM CST SUN JAN 22 2017

NOTE: "FAIR" INDICATES FEW OR NO CLOUDS BELOW 12,000 FEET WITH NO
SIGNIFICANT WEATHER AND/OR OBSTRUCTIONS TO VISIBILITY.


NDZ001>003-009>011-017-222100-
NORTHWEST NORTH DAKOTA

CITY           SKY/WX    TMP DP  RH WIND       PRES   REMARKS
WILLISTON      CLOUDY    31  27  85 W13       29.80S
MINOT          CLOUDY    34  30  85 W10       29.75S
MINOT AFB      CLOUDY    32  29  90 W10       29.74S
$$

NDZ018>021-031>035-040>046-222100-
SOUTHWEST NORTH DAKOTA

CITY           SKY/WX    TMP DP  RH WIND       PRES   REMARKS
BISMARCK       CLOUDY    33  29  85 NW10      29.80S
DICKINSON      CLOUDY    26  23  88 W22       29.78S WCI  12
GARRISON         N/A     32  28  85 W14       29.76F
HETTINGER ARPT CLOUDY    28  25  88 W18       29.81F WCI  15
$$

NDZ004>008-012>016-024-026-027-054-222100-
NORTHEAST NORTH DAKOTA

CITY           SKY/WX    TMP DP  RH WIND       PRES   REMARKS
GRAND FORKS    CLOUDY    34  29  82 W9        29.73S
GRND FRKS AFB  CLOUDY    32  29  87 W9        29.73S
DEVILS LAKE    CLOUDY    31  28  89 W13       29.72F
$$

NDZ022-023-025-028>030-036>039-047>053-222100-
SOUTHEAST NORTH DAKOTA

CITY           SKY/WX    TMP DP  RH WIND       PRES   REMARKS
FARGO          CLOUDY    36  31  82 W7        29.74S HAZE
JAMESTOWN      CLOUDY    33  29  85 NW16      29.72F
$$





USA.gov is the U.S. government's official web portal to all federal, state and local government web resources and services.